Flag for Jordan Weather past 2 weeks in Zarqa, Jordan

Now
66 °F

Haze.


Feels Like: 66 °F
Forecast: 39 / 66 °F
Wind: No wind

Location: Amman Airport

Current Time: Feb 1, 2015 at 4:19:16 PM

Latest Report: Feb 1, 2015 at 3:00 PM


Visibility: 3 mi

Pressure: 30.09 "Hg

Humidity: 26%

Dew point: 30 °F

Location of ZarqaLocation

Historic Weather in Zarqa — Graph

°F

Zarqa temperature yesterday

Maximum temperature yesterday: 59 °F (at 2:00 PM)
Minimum temperature yesterday: 39 °F (at 6:00 AM)
Average temperature yesterday: 48 °F

Past Weeks' High & Low Weather Summary

 TemperatureHumidityPressure
High66 °F (Jan 22, 1:00 PM)93% (Jan 18, 5:00 AM)30.33 "Hg (Jan 18, 5:00 AM)
Low37 °F (Jan 19, 6:00 AM)24% (Jan 22, 4:00 PM)29.86 "Hg (Jan 28, 8:00 AM)
Average51 °F59%30.12 "Hg
* Reported Jan 17 3:00 PM — Feb 1 3:00 PM, Zarqa, Weather by CustomWeather, © 2014

Note: Actual official high and low records may vary slightly from our data, if they occured in-between our weather recording intervals... More about our weather records

Advertising

Zarqa weather history for previous 24 hours

 ConditionsComfort  
Time TempWeatherWind HumidityBarometerVisibility
3:00 PM
Feb 1
66 °FHaze.No wind26%30.09 "Hg3 mi
2:00 PM63 °FHaze.6 mph32%30.09 "Hg3 mi
1:00 PM59 °FHaze.6 mph34%30.12 "Hg3 mi
12:00 PM55 °FHaze.6 mph41%30.15 "Hg3 mi
11:00 AM54 °FHaze.6 mph44%30.15 "Hg2 mi
10:00 AM52 °FHaze.No wind44%30.15 "Hg2 mi
9:00 AM48 °FHaze.5 mph46%30.15 "Hg2 mi
8:00 AM39 °FHaze.No wind65%30.15 "Hg2 mi
7:00 AM41 °FClear.No wind57%30.15 "Hg2 mi
6:00 AM41 °FClear.No wind57%30.12 "Hg3 mi
5:00 AM41 °FClear.No wind57%30.12 "Hg3 mi
3:00 AM43 °FClear.No wind53%30.15 "Hg3 mi
2:00 AM43 °FClear.No wind57%30.15 "Hg3 mi
1:00 AM46 °FClear.3 mph50%30.15 "Hg3 mi
12:00 AM46 °FClear.3 mph50%30.15 "Hg3 mi
10:00 PM
Jan 31
46 °FClear.No wind50%30.15 "Hg4 mi
9:00 PM48 °FClear.3 mph46%30.15 "Hg4 mi
8:00 PM48 °FClear.3 mph46%30.15 "Hg4 mi
7:00 PM50 °FClear.3 mph40%30.15 "Hg4 mi
6:00 PM52 °FHaze.7 mph38%30.15 "Hg3 mi
5:00 PM57 °FHaze.7 mph31%30.12 "Hg2 mi
4:00 PM59 °FHaze.9 mph29%30.12 "Hg3 mi
Weather by CustomWeather, © 2014

See weather overviewHow to use our weather pages